Flag for U.S.A. Weather past 2 weeks in Tucson, Arizona, U.S.A.

Now
103 °F

Sunny.


Feels Like: 99 °F
Forecast: 83 / 104 °F
Wind: 14 mph from Southeast

Location: Davis-Monthan Air Force Base

Current Time: Jul 24, 2014 at 1:57:32 PM

Latest Report: Jul 24, 2014 at 12:58 PM


Visibility: 10 mi

Pressure: 29.78 "Hg

Humidity: 12%

Dew point: 42 °F

Location of TucsonLocation

Historic Weather in Tucson — Graph

°F

Tucson temperature yesterday

Maximum temperature yesterday: 104 °F (at 3:58 PM)
Minimum temperature yesterday: 84 °F (at 5:58 AM)
Average temperature yesterday: 94 °F

Past Weeks' High & Low Weather Summary

 TemperatureHumidityPressure
High104 °F (Jul 23, 3:58 PM)97% (Jul 14, 1:58 AM)30.13 "Hg (Jul 14, 1:58 AM)
Low71 °F (Jul 15, 9:58 AM)12% (Jul 24, 11:58 AM)29.72 "Hg (Jul 10, 3:58 PM)
Average86 °F41%29.87 "Hg
* Reported Jul 9 12:58 PM — Jul 24 12:58 PM, Tucson, Weather by CustomWeather, © 2014

Note: Actual official high and low records may vary slightly from our data, if they occured in-between our weather recording intervals... More about our weather records

Advertising

Tucson weather history for previous 24 hours

 ConditionsComfort  
Time TempWeatherWind HumidityBarometerVisibility
12:58 PM
Jul 24
103 °FSunny.14 mph12%29.78 "Hg10 mi
11:58 AM102 °FSunny.14 mph12%29.80 "Hg10 mi
10:58 AM101 °FSunny.16 mph13%29.81 "Hg10 mi
9:58 AM100 °FSunny.18 mph14%29.81 "Hg10 mi
8:58 AM96 °FSunny.14 mph18%29.83 "Hg10 mi
7:58 AM90 °FSunny.9 mph28%29.84 "Hg10 mi
6:58 AM85 °FSunny.3 mph35%29.85 "Hg10 mi
5:58 AM80 °FPassing clouds.3 mph51%29.84 "Hg10 mi
4:58 AM81 °FClear.6 mph46%29.83 "Hg10 mi
3:58 AM82 °FClear.5 mph45%29.83 "Hg10 mi
2:58 AM83 °FClear.3 mph50%29.83 "Hg10 mi
1:58 AM82 °FClear.5 mph50%29.83 "Hg10 mi
12:58 AM84 °FClear.6 mph47%29.84 "Hg10 mi
11:58 PM
Jul 23
86 °FClear.3 mph45%29.85 "Hg10 mi
10:58 PM87 °FPassing clouds.3 mph43%29.86 "Hg10 mi
9:58 PM87 °FPassing clouds.7 mph43%30.01 "Hg10 mi
8:58 PM88 °FPassing clouds.9 mph43%30.01 "Hg10 mi
7:58 PM97 °FPassing clouds.6 mph25%29.98 "Hg10 mi
6:58 PM96 °FPartly sunny.10 mph25%29.92 "Hg10 mi
5:58 PM102 °FPassing clouds.12 mph21%29.76 "Hg10 mi
4:58 PM104 °FSunny.8 mph19%29.76 "Hg10 mi
3:58 PM104 °FPassing clouds.8 mph18%29.77 "Hg10 mi
2:58 PM104 °FSunny.13 mph20%29.79 "Hg10 mi
1:58 PM103 °FSunny.8 mph19%29.82 "Hg10 mi
Weather by CustomWeather, © 2014

See weather overviewHow to use our weather pages